Regional Weather Roundup
Issued by NWS Lake Charles, LA

Home | Current Version | Previous Version | Text Only | Print | Product List | Glossary On
Versions: 1 2 3 4 5 6 7 8 9 10 11 12 13 14 15 16 17 18 19 20 21 22 23 24 25 26 27 28
000
ASUS44 KLCH 211210
RWRLCH
REGIONAL WEATHER ROUNDUP
NATIONAL WEATHER SERVICE LAKE CHARLES LA
600 AM CST TUE NOV 21 2017

Note: "fair" indicates few or no clouds below 12,000 feet with no
significant weather and/or obstructions to visibility.


ACROSS SOUTHEAST TEXAS

CITY           SKY/WX    TMP DP  RH WIND       PRES   REMARKS
BEAUMONT       CLOUDY    58  54  86 E7        29.93F
BEAUMONT CITY  CLOUDY    59  53  80 E3        29.94S
ORANGE         CLOUDY    56  53  91 E6        29.97S
JASPER         CLOUDY    48  43  80 CALM      29.98S
$$

ACROSS CENTRAL LOUISIANA

CITY           SKY/WX    TMP DP  RH WIND       PRES   REMARKS
LEESVILLE      CLEAR     42  37  83 CALM      29.98S
FULLERTON      FAIR      40  38  93 CALM      29.97R
ALEXANDRIA INT CLEAR     38  36  92 CALM      29.99S
ESLER FIELD    CLEAR     32  32 100 CALM      30.01R
DERIDDER       CLOUDY    45  37  74 CALM      30.00S
OAKDALE        PTSUNNY   38  37  95 CALM      30.00S
OPELOUSAS      FAIR      42  41  97 CALM      30.01R
$$

ACROSS SOUTHWEST AND SOUTH CENTRAL LOUISIANA

CITY           SKY/WX    TMP DP  RH WIND       PRES   REMARKS
SULPHUR        CLOUDY    55  50  81 E5        29.98S
LAKE CHARLES   CLOUDY    53  50  89 E6        29.97S
CHENNAULT INT  CLOUDY    52  46  82 E12       29.98S
CAMERON PHI    CLOUDY    57  54  88 E7        29.97R
DEQUINCY       CLOUDY    50  44  79 E3        29.98S
JENNINGS       CLOUDY    50  46  86 E3        29.99S
LAFAYETTE      CLOUDY    50  48  93 CALM      30.00R
NEW IBERIA     CLOUDY    51  47  86 E5        30.00R
ABBEVILLE      CLOUDY    51  51  99 CALM      30.00R
PATTERSON      PTCLDY    52  50  93 E3        30.00S
SALT POINT       N/A      1  52 100 E3        29.98S
$$

SELECTED SITES ACROSS THE REGION

CITY           SKY/WX    TMP DP  RH WIND       PRES   REMARKS
HOUSTON BUSH   CLOUDY    56  53  90 NE3       29.92F
HOUSTON HOBBY  CLOUDY    61  60  97 CALM      29.91F
GALVESTON      LGT RAIN  69  66  90 SW6       29.93R
COLLEGE STAT   CLOUDY    53  51  93 SE6       29.90F
CONROE         CLOUDY    51  49  92 CALM      29.93F
HUNTSVILLE     CLOUDY    56  51  84 SE3       29.92S
LUFKIN         CLOUDY    46  38  73 SE5       29.95S
SHREVEPORT     PTCLDY    40  38  93 SE3       29.95F
MONROE         CLOUDY    35  33  92 CALM      30.03R
NATCHEZ MS     CLEAR     40  36  86 S6        30.02S
BATON ROUGE    CLEAR     43  40  89 NE5       30.01S
N.O. INTL ARPT MOCLDY    50  47  89 E6        30.02S
SLIDELL        CLEAR     46  41  82 CALM      30.03S
$$

MARINE REPORTS

STATION/POSITION TIME  SKY/WX   TEMP    WIND        PRES    VSBY
                                AIR SEA DIR/SP/G
                 (UTC)          (F)     (DEG/KT/KT) (MB)    (MI)
BUOY 30 S HIGH I 1050            70 71  140/ 17/ 19 1012.5
WVE H/P(F/S)=  3/ 4

SEA RIM ST PARK  1100            66     120/  9/ 11 1014.0F
PORT ARTHUR      1148            59 67   80/  5/  8 1014.0F
SABINE PASS N    1148            66 68  110/ 10/ 12 1015.1S
TEXAS POINT      NOT AVBL
CALCASIEU PASS   1148            58 65  100/  7/  9 1013.5R
LK CHARLES BEACH 1148            53 69              1014.3F
MARSH ISLAND     1100            60                   N/A
FRESH WATER LOCK 1148            59 65   80/  6/  9 1015.0R
AMERADA PASS     1148            55 59   90/  6/  9 1015.3R
$$




USA.gov is the U.S. government's official web portal to all federal, state and local government web resources and services.